Time,TemperatureF,DewpointF,PressureIn,WindDirection,WindDirectionDegrees,WindSpeedMPH,WindSpeedGustMPH,Humidity,HourlyPrecipIn,Conditions,Clouds,dailyrainin,SoftwareType,DateUTC
2013-04-20 00:01:00,75.9,73.1,30.01,SSW,205,0.0,1.0,91,0.00,,,0.00,WeatherCatV1.15B25,2013-04-20 04:01:00,
2013-04-20 00:06:00,75.9,73.1,30.01,SSW,202,0.0,2.0,91,0.00,,,0.00,WeatherCatV1.15B25,2013-04-20 04:06:00,
2013-04-20 00:11:00,75.8,73.0,30.00,South,185,4.0,4.0,91,0.00,,,0.00,WeatherCatV1.15B25,2013-04-20 04:11:00,
2013-04-20 00:16:00,75.8,73.0,30.00,South,186,0.0,2.0,91,0.00,,,0.00,WeatherCatV1.15B25,2013-04-20 04:16:00,
2013-04-20 00:21:00,75.8,73.0,30.00,SSE,165,0.0,1.0,91,0.00,,,0.00,WeatherCatV1.15B25,2013-04-20 04:21:00,
2013-04-20 00:26:00,75.7,72.9,30.00,SSE,164,0.0,0.0,91,0.00,,,0.00,WeatherCatV1.15B25,2013-04-20 04:26:00,
2013-04-20 00:31:00,75.7,73.2,30.00,SSE,158,0.0,1.0,92,0.00,,,0.00,WeatherCatV1.15B25,2013-04-20 04:31:00,
2013-04-20 00:36:00,75.6,73.1,30.00,South,180,0.0,0.0,92,0.00,,,0.00,WeatherCatV1.15B25,2013-04-20 04:36:00,
2013-04-20 00:41:00,75.6,73.1,30.00,South,178,0.0,4.0,92,0.00,,,0.00,WeatherCatV1.15B25,2013-04-20 04:41:00,
2013-04-20 00:46:00,75.6,73.1,30.00,South,185,0.0,2.0,92,0.00,,,0.00,WeatherCatV1.15B25,2013-04-20 04:46:00,
2013-04-20 00:51:00,75.6,73.1,30.00,South,185,0.0,2.0,92,0.00,,,0.00,WeatherCatV1.15B25,2013-04-20 04:51:00,
2013-04-20 00:56:00,75.5,73.0,30.00,South,185,0.0,0.0,92,0.00,,,0.00,WeatherCatV1.15B25,2013-04-20 04:56:00,
2013-04-20 01:01:00,75.5,73.0,30.00,South,185,0.0,1.0,92,0.00,,,0.00,WeatherCatV1.15B25,2013-04-20 05:01:00,
2013-04-20 01:06:00,75.5,73.0,29.99,South,175,0.0,1.0,92,0.00,,,0.00,WeatherCatV1.15B25,2013-04-20 05:06:00,
2013-04-20 01:11:00,75.4,72.9,29.99,South,186,0.0,1.0,92,0.00,,,0.00,WeatherCatV1.15B25,2013-04-20 05:11:00,
2013-04-20 01:16:00,75.3,72.8,29.99,South,180,0.0,2.0,92,0.00,,,0.00,WeatherCatV1.15B25,2013-04-20 05:16:00,
2013-04-20 01:21:00,75.3,72.8,30.00,South,182,0.0,1.0,92,0.00,,,0.00,WeatherCatV1.15B25,2013-04-20 05:21:00,
2013-04-20 01:26:00,75.3,72.8,30.00,South,183,0.0,0.0,92,0.00,,,0.00,WeatherCatV1.15B25,2013-04-20 05:26:00,
2013-04-20 01:31:00,75.2,73.0,30.00,SSE,157,0.0,2.0,93,0.00,,,0.00,WeatherCatV1.15B25,2013-04-20 05:31:00,
2013-04-20 01:36:00,75.2,73.0,30.00,SSE,160,0.0,2.0,93,0.00,,,0.00,WeatherCatV1.15B25,2013-04-20 05:36:00,
2013-04-20 01:41:00,75.2,73.0,29.99,SSE,161,0.0,1.0,93,0.00,,,0.00,WeatherCatV1.15B25,2013-04-20 05:41:00,
2013-04-20 01:46:00,75.2,73.0,29.99,SW,229,2.0,2.0,93,0.00,,,0.00,WeatherCatV1.15B25,2013-04-20 05:46:00,
2013-04-20 01:51:00,75.2,73.0,29.99,SW,225,0.0,0.0,93,0.00,,,0.00,WeatherCatV1.15B25,2013-04-20 05:51:00,
2013-04-20 01:56:00,75.2,73.0,29.99,SSW,194,4.0,4.0,93,0.00,,,0.00,WeatherCatV1.15B25,2013-04-20 05:56:00,
2013-04-20 02:01:00,75.1,72.9,29.98,South,175,3.0,5.0,93,0.00,,,0.00,WeatherCatV1.15B25,2013-04-20 06:01:00,
2013-04-20 02:06:00,75.2,73.0,29.98,SSW,204,0.0,0.0,93,0.00,,,0.00,WeatherCatV1.15B25,2013-04-20 06:06:00,
2013-04-20 02:11:00,75.2,73.0,29.98,South,182,0.0,5.0,93,0.00,,,0.00,WeatherCatV1.15B25,2013-04-20 06:11:00,
2013-04-20 02:16:00,75.2,73.0,29.98,South,190,1.0,1.0,93,0.00,,,0.00,WeatherCatV1.15B25,2013-04-20 06:16:00,
2013-04-20 02:21:00,75.3,73.1,29.98,South,182,0.0,5.0,93,0.00,,,0.00,WeatherCatV1.15B25,2013-04-20 06:21:00,
2013-04-20 02:26:00,75.3,73.1,29.98,South,169,1.0,1.0,93,0.00,,,0.00,WeatherCatV1.15B25,2013-04-20 06:26:00,
2013-04-20 02:31:00,75.4,73.2,29.98,SSW,199,0.0,4.0,93,0.00,,,0.00,WeatherCatV1.15B25,2013-04-20 06:31:00,
2013-04-20 02:36:00,75.4,73.2,29.98,South,178,0.0,0.0,93,0.00,,,0.00,WeatherCatV1.15B25,2013-04-20 06:36:00,
2013-04-20 02:41:00,75.4,73.2,29.98,SSE,167,0.0,4.0,93,0.00,,,0.00,WeatherCatV1.15B25,2013-04-20 06:41:00,
2013-04-20 02:46:00,75.4,73.2,29.98,SSW,192,1.0,1.0,93,0.00,,,0.00,WeatherCatV1.15B25,2013-04-20 06:46:00,
2013-04-20 02:51:00,75.3,73.1,29.98,South,186,1.0,2.0,93,0.00,,,0.00,WeatherCatV1.15B25,2013-04-20 06:51:00,
2013-04-20 02:56:00,75.3,73.1,29.98,South,189,0.0,2.0,93,0.00,,,0.00,WeatherCatV1.15B25,2013-04-20 06:56:00,
2013-04-20 03:01:00,75.3,73.1,29.98,South,180,0.0,4.0,93,0.00,,,0.00,WeatherCatV1.15B25,2013-04-20 07:01:00,
2013-04-20 03:06:00,75.2,73.0,29.97,SSW,207,1.0,1.0,93,0.00,,,0.00,WeatherCatV1.15B25,2013-04-20 07:06:00,
2013-04-20 03:11:00,75.2,73.0,29.97,South,176,0.0,1.0,93,0.00,,,0.00,WeatherCatV1.15B25,2013-04-20 07:11:00,
2013-04-20 03:16:00,75.2,73.3,29.97,SW,215,0.0,1.0,94,0.00,,,0.00,WeatherCatV1.15B25,2013-04-20 07:16:00,
2013-04-20 03:21:00,75.2,73.3,29.97,SW,215,0.0,1.0,94,0.00,,,0.00,WeatherCatV1.15B25,2013-04-20 07:21:00,
2013-04-20 03:26:00,75.1,73.2,29.97,South,176,2.0,4.0,94,0.00,,,0.00,WeatherCatV1.15B25,2013-04-20 07:26:00,
2013-04-20 03:31:00,75.1,73.2,29.97,SW,217,0.0,1.0,94,0.00,,,0.00,WeatherCatV1.15B25,2013-04-20 07:31:00,
2013-04-20 03:36:00,75.1,73.2,29.97,SSW,206,0.0,1.0,94,0.00,,,0.00,WeatherCatV1.15B25,2013-04-20 07:36:00,
2013-04-20 03:41:00,75.1,73.2,29.97,South,182,0.0,1.0,94,0.00,,,0.00,WeatherCatV1.15B25,2013-04-20 07:41:00,
2013-04-20 03:46:00,75.2,73.3,29.97,South,175,0.0,1.0,94,0.00,,,0.00,WeatherCatV1.15B25,2013-04-20 07:46:00,
2013-04-20 03:51:00,75.3,73.4,29.97,SSW,211,0.0,0.0,94,0.00,,,0.00,WeatherCatV1.15B25,2013-04-20 07:51:00,
2013-04-20 03:56:00,75.3,73.4,29.97,SW,234,0.0,2.0,94,0.00,,,0.00,WeatherCatV1.15B25,2013-04-20 07:56:00,
2013-04-20 04:01:00,75.3,73.4,29.97,South,174,0.0,2.0,94,0.00,,,0.00,WeatherCatV1.15B25,2013-04-20 08:01:00,
2013-04-20 04:06:00,75.4,73.5,29.97,South,171,0.0,0.0,94,0.00,,,0.00,WeatherCatV1.15B25,2013-04-20 08:06:00,
2013-04-20 04:11:00,75.3,73.4,29.97,SSW,192,1.0,3.0,94,0.00,,,0.00,WeatherCatV1.15B25,2013-04-20 08:11:00,
2013-04-20 04:16:00,75.3,73.4,29.97,SW,219,5.0,6.0,94,0.00,,,0.00,WeatherCatV1.15B25,2013-04-20 08:16:00,
2013-04-20 04:21:00,75.3,73.4,29.97,SSW,207,0.0,5.0,94,0.00,,,0.00,WeatherCatV1.15B25,2013-04-20 08:21:00,
2013-04-20 04:26:00,75.3,73.4,29.97,WSW,238,0.0,1.0,94,0.00,,,0.00,WeatherCatV1.15B25,2013-04-20 08:26:00,
2013-04-20 04:31:00,75.3,73.4,29.97,SW,235,1.0,2.0,94,0.00,,,0.00,WeatherCatV1.15B25,2013-04-20 08:31:00,
2013-04-20 04:36:00,75.2,72.7,29.97,WNW,290,2.0,6.0,92,0.00,,,0.00,WeatherCatV1.15B25,2013-04-20 08:36:00,
2013-04-20 04:41:00,74.8,72.0,29.97,WNW,291,5.0,8.0,91,0.00,,,0.00,WeatherCatV1.15B25,2013-04-20 08:41:00,
2013-04-20 04:46:00,74.4,71.3,29.97,WNW,289,5.0,8.0,90,0.00,,,0.00,WeatherCatV1.15B25,2013-04-20 08:46:00,
2013-04-20 04:51:00,74.0,70.5,29.98,WNW,294,7.0,11.0,89,0.00,,,0.00,WeatherCatV1.15B25,2013-04-20 08:51:00,
2013-04-20 04:56:00,73.6,70.5,29.98,WNW,299,2.0,7.0,90,0.19,,,0.02,WeatherCatV1.15B25,2013-04-20 08:56:00,
2013-04-20 05:01:00,73.2,70.4,29.98,NW,326,9.0,10.0,91,0.10,,,0.02,WeatherCatV1.15B25,2013-04-20 09:01:00,
2013-04-20 05:06:00,72.7,70.2,29.98,WNW,301,4.0,5.0,92,0.06,,,0.02,WeatherCatV1.15B25,2013-04-20 09:06:00,
2013-04-20 05:11:00,72.4,69.9,29.98,NW,310,4.0,7.0,92,0.04,,,0.02,WeatherCatV1.15B25,2013-04-20 09:11:00,
2013-04-20 05:16:00,72.0,69.5,29.98,NW,321,5.0,9.0,92,0.00,,,0.02,WeatherCatV1.15B25,2013-04-20 09:16:00,
2013-04-20 05:21:00,71.8,69.3,29.98,WNW,298,5.0,10.0,92,0.00,,,0.02,WeatherCatV1.15B25,2013-04-20 09:21:00,
2013-04-20 05:26:00,71.3,68.5,29.98,WNW,302,4.0,7.0,91,0.00,,,0.02,WeatherCatV1.15B25,2013-04-20 09:26:00,
2013-04-20 05:31:00,71.0,68.2,29.98,WNW,292,5.0,9.0,91,0.00,,,0.02,WeatherCatV1.15B25,2013-04-20 09:31:00,
2013-04-20 05:36:00,70.8,68.0,29.98,NW,324,10.0,10.0,91,0.00,,,0.02,WeatherCatV1.15B25,2013-04-20 09:36:00,
2013-04-20 05:41:00,70.7,67.9,29.99,North,5,7.0,7.0,91,0.00,,,0.02,WeatherCatV1.15B25,2013-04-20 09:41:00,
2013-04-20 05:46:00,70.6,67.8,29.98,NNW,330,2.0,11.0,91,0.00,,,0.02,WeatherCatV1.15B25,2013-04-20 09:46:00,
2013-04-20 05:51:00,70.6,67.8,29.98,NNW,329,8.0,10.0,91,0.00,,,0.02,WeatherCatV1.15B25,2013-04-20 09:51:00,
2013-04-20 05:56:00,70.4,67.3,29.98,NW,311,5.0,12.0,90,0.00,,,0.02,WeatherCatV1.15B25,2013-04-20 09:56:00,
2013-04-20 06:01:00,70.3,66.9,29.98,NNW,336,5.0,7.0,89,0.00,,,0.02,WeatherCatV1.15B25,2013-04-20 10:01:00,
2013-04-20 06:06:00,70.3,67.2,29.98,NW,323,4.0,5.0,90,0.00,,,0.02,WeatherCatV1.15B25,2013-04-20 10:06:00,
2013-04-20 06:11:00,70.2,66.8,29.98,NW,306,6.0,9.0,89,0.00,,,0.02,WeatherCatV1.15B25,2013-04-20 10:11:00,
2013-04-20 06:16:00,70.2,66.8,29.98,North,0,2.0,10.0,89,0.00,,,0.02,WeatherCatV1.15B25,2013-04-20 10:16:00,
2013-04-20 06:21:00,70.2,66.8,29.98,NNW,329,2.0,6.0,89,0.00,,,0.02,WeatherCatV1.15B25,2013-04-20 10:21:00,
2013-04-20 06:26:00,70.2,66.8,29.98,NW,309,6.0,7.0,89,0.00,,,0.02,WeatherCatV1.15B25,2013-04-20 10:26:00,
2013-04-20 06:31:00,70.2,66.8,29.98,NNW,330,4.0,11.0,89,0.00,,,0.02,WeatherCatV1.15B25,2013-04-20 10:31:00,
2013-04-20 06:36:00,70.2,66.8,29.99,NW,316,2.0,6.0,89,0.00,,,0.02,WeatherCatV1.15B25,2013-04-20 10:36:00,
2013-04-20 06:41:00,70.2,66.8,29.99,North,355,2.0,7.0,89,0.00,,,0.02,WeatherCatV1.15B25,2013-04-20 10:41:00,
2013-04-20 06:46:00,70.2,66.8,29.99,North,0,2.0,10.0,89,0.00,,,0.02,WeatherCatV1.15B25,2013-04-20 10:46:00,
2013-04-20 06:51:00,70.2,66.5,29.99,NNW,337,4.0,9.0,88,0.00,,,0.02,WeatherCatV1.15B25,2013-04-20 10:51:00,
2013-04-20 06:56:00,70.2,66.5,29.99,NW,318,6.0,6.0,88,0.00,,,0.02,WeatherCatV1.15B25,2013-04-20 10:56:00,
2013-04-20 07:01:00,70.2,66.5,30.00,NNW,332,0.0,3.0,88,0.00,,,0.02,WeatherCatV1.15B25,2013-04-20 11:01:00,
2013-04-20 07:06:00,70.3,66.6,30.00,NNW,346,4.0,8.0,88,0.00,,,0.02,WeatherCatV1.15B25,2013-04-20 11:06:00,
2013-04-20 07:11:00,70.3,66.9,30.00,North,5,5.0,5.0,89,0.00,,,0.02,WeatherCatV1.15B25,2013-04-20 11:11:00,
2013-04-20 07:16:00,70.3,66.9,30.00,NNE,12,2.0,6.0,89,0.00,,,0.02,WeatherCatV1.15B25,2013-04-20 11:16:00,
2013-04-20 07:21:00,70.2,66.5,30.00,NW,321,4.0,9.0,88,0.00,,,0.02,WeatherCatV1.15B25,2013-04-20 11:21:00,
2013-04-20 07:26:00,70.2,66.5,30.00,North,355,0.0,4.0,88,0.00,,,0.02,WeatherCatV1.15B25,2013-04-20 11:26:00,
2013-04-20 07:31:00,70.1,66.4,30.00,NNW,341,6.0,9.0,88,0.00,,,0.02,WeatherCatV1.15B25,2013-04-20 11:31:00,
2013-04-20 07:36:00,70.0,66.3,30.00,North,351,0.0,6.0,88,0.00,,,0.02,WeatherCatV1.15B25,2013-04-20 11:36:00,
2013-04-20 07:41:00,70.1,66.7,29.99,NE,36,0.0,6.0,89,0.00,,,0.02,WeatherCatV1.15B25,2013-04-20 11:41:00,
2013-04-20 07:46:00,70.2,66.5,29.99,West,265,5.0,9.0,88,0.00,,,0.02,WeatherCatV1.15B25,2013-04-20 11:46:00,
2013-04-20 07:51:00,70.2,66.1,30.00,North,5,6.0,6.0,87,0.00,,,0.02,WeatherCatV1.15B25,2013-04-20 11:51:00,
2013-04-20 07:56:00,70.0,65.9,30.01,North,5,1.0,8.0,87,0.00,,,0.02,WeatherCatV1.15B25,2013-04-20 11:56:00,
2013-04-20 08:01:00,69.9,66.2,30.01,North,355,0.0,3.0,88,0.00,,,0.02,WeatherCatV1.15B25,2013-04-20 12:01:00,
2013-04-20 08:06:00,70.0,66.3,30.01,North,5,6.0,11.0,88,0.00,,,0.02,WeatherCatV1.15B25,2013-04-20 12:06:00,
2013-04-20 08:11:00,70.1,66.0,30.02,North,355,2.0,8.0,87,0.00,,,0.02,WeatherCatV1.15B25,2013-04-20 12:11:00,
2013-04-20 08:16:00,70.4,66.3,30.02,NNW,330,0.0,6.0,87,0.00,,,0.02,WeatherCatV1.15B25,2013-04-20 12:16:00,
2013-04-20 08:21:00,70.6,65.9,30.02,ENE,71,1.0,8.0,85,0.00,,,0.02,WeatherCatV1.15B25,2013-04-20 12:21:00,
2013-04-20 08:26:00,70.6,65.5,30.03,NNE,17,1.0,6.0,84,0.00,,,0.02,WeatherCatV1.15B25,2013-04-20 12:26:00,
2013-04-20 08:31:00,70.8,66.1,30.02,North,350,2.0,6.0,85,0.00,,,0.02,WeatherCatV1.15B25,2013-04-20 12:31:00,
2013-04-20 08:36:00,71.0,65.9,30.03,NW,322,5.0,9.0,84,0.00,,,0.02,WeatherCatV1.15B25,2013-04-20 12:36:00,
2013-04-20 08:41:00,71.0,65.6,30.03,North,0,6.0,9.0,83,0.00,,,0.02,WeatherCatV1.15B25,2013-04-20 12:41:00,
2013-04-20 08:46:00,71.1,65.0,30.03,NNE,19,6.0,9.0,81,0.00,,,0.02,WeatherCatV1.15B25,2013-04-20 12:46:00,
2013-04-20 08:51:00,71.3,65.2,30.03,NNE,18,2.0,7.0,81,0.00,,,0.02,WeatherCatV1.15B25,2013-04-20 12:51:00,
2013-04-20 08:56:00,71.6,65.4,30.03,NW,325,8.0,11.0,81,0.00,,,0.02,WeatherCatV1.15B25,2013-04-20 12:56:00,
2013-04-20 09:01:00,71.9,65.7,30.03,NW,323,5.0,10.0,81,0.00,,,0.02,WeatherCatV1.15B25,2013-04-20 13:01:00,
2013-04-20 09:06:00,71.8,64.9,30.03,NNE,21,2.0,13.0,79,0.00,,,0.02,WeatherCatV1.15B25,2013-04-20 13:06:00,
2013-04-20 09:11:00,71.7,65.2,30.03,NNW,340,4.0,5.0,80,0.00,,,0.02,WeatherCatV1.15B25,2013-04-20 13:11:00,
2013-04-20 09:16:00,71.6,64.7,30.03,NNW,327,6.0,8.0,79,0.00,,,0.02,WeatherCatV1.15B25,2013-04-20 13:16:00,
2013-04-20 09:21:00,71.3,64.8,30.04,NNW,338,1.0,10.0,80,0.00,,,0.02,WeatherCatV1.15B25,2013-04-20 13:21:00,
2013-04-20 09:26:00,71.1,65.0,30.04,NNW,327,9.0,9.0,81,0.00,,,0.02,WeatherCatV1.15B25,2013-04-20 13:26:00,
2013-04-20 09:31:00,70.8,64.7,30.04,NNW,336,7.0,7.0,81,0.00,,,0.02,WeatherCatV1.15B25,2013-04-20 13:31:00,
2013-04-20 09:36:00,70.6,64.1,30.05,NNW,332,12.0,14.0,80,0.00,,,0.02,WeatherCatV1.15B25,2013-04-20 13:36:00,
2013-04-20 09:41:00,70.3,63.5,30.05,North,5,12.0,12.0,79,0.00,,,0.02,WeatherCatV1.15B25,2013-04-20 13:41:00,
2013-04-20 09:46:00,70.3,63.8,30.05,North,0,1.0,6.0,80,0.00,,,0.02,WeatherCatV1.15B25,2013-04-20 13:46:00,
2013-04-20 09:51:00,70.2,63.7,30.06,NNW,327,8.0,10.0,80,0.00,,,0.02,WeatherCatV1.15B25,2013-04-20 13:51:00,
2013-04-20 09:56:00,70.1,63.6,30.06,NNW,337,0.0,11.0,80,0.00,,,0.02,WeatherCatV1.15B25,2013-04-20 13:56:00,
2013-04-20 10:01:00,70.1,63.6,30.06,North,5,4.0,9.0,80,0.00,,,0.02,WeatherCatV1.15B25,2013-04-20 14:01:00,
2013-04-20 10:06:00,70.2,63.7,30.06,North,5,11.0,13.0,80,0.00,,,0.02,WeatherCatV1.15B25,2013-04-20 14:06:00,
2013-04-20 10:11:00,70.2,63.7,30.06,NNW,327,6.0,8.0,80,0.00,,,0.02,WeatherCatV1.15B25,2013-04-20 14:11:00,
2013-04-20 10:16:00,70.2,63.7,30.07,NW,314,5.0,9.0,80,0.00,,,0.02,WeatherCatV1.15B25,2013-04-20 14:16:00,
2013-04-20 10:21:00,70.2,63.7,30.07,NW,323,4.0,7.0,80,0.00,,,0.02,WeatherCatV1.15B25,2013-04-20 14:21:00,
2013-04-20 10:26:00,70.4,64.3,30.07,NW,322,6.0,7.0,81,0.00,,,0.02,WeatherCatV1.15B25,2013-04-20 14:26:00,
2013-04-20 10:31:00,70.6,64.1,30.07,North,0,3.0,11.0,80,0.00,,,0.02,WeatherCatV1.15B25,2013-04-20 14:31:00,
2013-04-20 10:36:00,71.1,64.6,30.07,NNW,328,7.0,12.0,80,0.00,,,0.02,WeatherCatV1.15B25,2013-04-20 14:36:00,
2013-04-20 10:42:00,72.2,65.3,30.07,NNE,13,2.0,8.0,79,0.00,,,0.02,WeatherCatV1.15B25,2013-04-20 14:42:00,
2013-04-20 10:47:00,73.0,65.3,30.07,ENE,74,4.0,6.0,77,0.00,,,0.02,WeatherCatV1.15B25,2013-04-20 14:47:00,
2013-04-20 10:52:00,73.2,64.8,30.07,NNE,32,1.0,14.0,75,0.00,,,0.02,WeatherCatV1.15B25,2013-04-20 14:52:00,
2013-04-20 10:57:00,73.3,65.3,30.07,North,11,2.0,10.0,76,0.00,,,0.02,WeatherCatV1.15B25,2013-04-20 14:57:00,
2013-04-20 11:02:00,73.7,66.0,30.07,North,5,5.0,9.0,77,0.00,,,0.02,WeatherCatV1.15B25,2013-04-20 15:02:00,
2013-04-20 11:07:00,73.8,65.7,30.07,North,0,1.0,6.0,76,0.00,,,0.02,WeatherCatV1.15B25,2013-04-20 15:07:00,
2013-04-20 11:12:00,73.8,65.7,30.06,North,11,6.0,6.0,76,0.00,,,0.02,WeatherCatV1.15B25,2013-04-20 15:12:00,
2013-04-20 11:17:00,73.8,65.4,30.06,North,5,6.0,8.0,75,0.00,,,0.02,WeatherCatV1.15B25,2013-04-20 15:17:00,
2013-04-20 11:22:00,74.2,66.1,30.06,NW,326,7.0,9.0,76,0.00,,,0.02,WeatherCatV1.15B25,2013-04-20 15:22:00,
2013-04-20 11:27:00,74.8,65.9,30.06,NNW,341,4.0,7.0,74,0.00,,,0.02,WeatherCatV1.15B25,2013-04-20 15:27:00,
2013-04-20 11:32:00,75.1,66.6,30.06,NW,315,9.0,11.0,75,0.00,,,0.02,WeatherCatV1.15B25,2013-04-20 15:32:00,
2013-04-20 11:37:00,75.4,66.9,30.06,ENE,59,2.0,6.0,75,0.00,,,0.02,WeatherCatV1.15B25,2013-04-20 15:37:00,
2013-04-20 11:42:00,75.6,66.3,30.06,NE,51,3.0,6.0,73,0.00,,,0.02,WeatherCatV1.15B25,2013-04-20 15:42:00,
2013-04-20 11:47:00,76.1,67.2,30.07,NNW,342,9.0,10.0,74,0.00,,,0.02,WeatherCatV1.15B25,2013-04-20 15:47:00,
2013-04-20 11:52:00,76.6,66.9,30.06,North,5,3.0,7.0,72,0.00,,,0.02,WeatherCatV1.15B25,2013-04-20 15:52:00,
2013-04-20 11:57:00,77.0,66.9,30.06,NW,325,9.0,10.0,71,0.00,,,0.02,WeatherCatV1.15B25,2013-04-20 15:57:00,
2013-04-20 12:02:00,76.9,67.2,30.07,NW,307,3.0,11.0,72,0.00,,,0.02,WeatherCatV1.15B25,2013-04-20 16:02:00,
2013-04-20 12:07:00,76.9,66.3,30.07,NW,319,8.0,12.0,70,0.00,,,0.02,WeatherCatV1.15B25,2013-04-20 16:07:00,
2013-04-20 12:12:00,76.5,66.4,30.07,NNW,346,7.0,12.0,71,0.00,,,0.02,WeatherCatV1.15B25,2013-04-20 16:12:00,
2013-04-20 12:17:00,76.4,66.3,30.07,NNW,343,3.0,10.0,71,0.00,,,0.02,WeatherCatV1.15B25,2013-04-20 16:17:00,
2013-04-20 12:22:00,76.2,65.7,30.07,North,355,3.0,6.0,70,0.00,,,0.02,WeatherCatV1.15B25,2013-04-20 16:22:00,
2013-04-20 12:27:00,76.2,66.1,30.06,ENE,61,6.0,7.0,71,0.00,,,0.02,WeatherCatV1.15B25,2013-04-20 16:27:00,
2013-04-20 12:32:00,76.0,65.5,30.06,NNE,12,0.0,6.0,70,0.00,,,0.02,WeatherCatV1.15B25,2013-04-20 16:32:00,
2013-04-20 12:37:00,75.7,65.6,30.06,North,351,5.0,11.0,71,0.00,,,0.02,WeatherCatV1.15B25,2013-04-20 16:37:00,
2013-04-20 12:42:00,75.7,65.6,30.06,NW,321,2.0,6.0,71,0.00,,,0.02,WeatherCatV1.15B25,2013-04-20 16:42:00,
2013-04-20 12:47:00,75.4,64.9,30.06,NE,40,1.0,6.0,70,0.00,,,0.02,WeatherCatV1.15B25,2013-04-20 16:47:00,
2013-04-20 12:52:00,75.1,65.4,30.06,North,355,2.0,8.0,72,0.00,,,0.02,WeatherCatV1.15B25,2013-04-20 16:52:00,
2013-04-20 12:57:00,74.8,65.2,30.06,NNW,347,5.0,6.0,72,0.00,,,0.02,WeatherCatV1.15B25,2013-04-20 16:57:00,
2013-04-20 13:02:00,74.7,65.8,30.06,North,350,0.0,5.0,74,0.00,,,0.02,WeatherCatV1.15B25,2013-04-20 17:02:00,
2013-04-20 13:07:00,74.5,65.3,30.06,ESE,104,0.0,4.0,73,0.00,,,0.02,WeatherCatV1.15B25,2013-04-20 17:07:00,
2013-04-20 13:12:00,74.6,65.4,30.06,ENE,60,0.0,6.0,73,0.00,,,0.02,WeatherCatV1.15B25,2013-04-20 17:12:00,
2013-04-20 13:17:00,74.7,65.5,30.06,NE,46,2.0,8.0,73,0.00,,,0.02,WeatherCatV1.15B25,2013-04-20 17:17:00,
2013-04-20 13:22:00,75.0,65.3,30.06,NNE,24,0.0,6.0,72,0.00,,,0.02,WeatherCatV1.15B25,2013-04-20 17:22:00,
2013-04-20 13:27:00,75.5,66.2,30.06,North,350,0.0,4.0,73,0.00,,,0.02,WeatherCatV1.15B25,2013-04-20 17:27:00,
2013-04-20 13:32:00,76.2,66.5,30.06,NNE,26,2.0,7.0,72,0.00,,,0.02,WeatherCatV1.15B25,2013-04-20 17:32:00,
2013-04-20 13:37:00,76.7,66.6,30.05,NNE,28,3.0,7.0,71,0.00,,,0.02,WeatherCatV1.15B25,2013-04-20 17:37:00,
2013-04-20 13:42:00,77.0,66.4,30.05,NNE,13,4.0,9.0,70,0.00,,,0.02,WeatherCatV1.15B25,2013-04-20 17:42:00,
2013-04-20 13:47:00,77.1,66.5,30.05,North,355,7.0,8.0,70,0.00,,,0.02,WeatherCatV1.15B25,2013-04-20 17:47:00,
2013-04-20 13:51:00,77.3,67.1,30.04,North,5,5.0,7.0,71,0.00,,,0.02,WeatherCatV1.15B25,2013-04-20 17:51:00,
2013-04-20 13:56:00,77.7,67.1,30.04,North,355,3.0,8.0,70,0.00,,,0.02,WeatherCatV1.15B25,2013-04-20 17:56:00,
2013-04-20 14:01:00,77.7,66.3,30.04,NNW,335,5.0,11.0,68,0.00,,,0.02,WeatherCatV1.15B25,2013-04-20 18:01:00,
2013-04-20 14:06:00,77.6,66.6,30.04,NNE,14,3.0,6.0,69,0.00,,,0.02,WeatherCatV1.15B25,2013-04-20 18:06:00,
2013-04-20 14:11:00,77.4,66.4,30.04,NNW,335,1.0,12.0,69,0.00,,,0.02,WeatherCatV1.15B25,2013-04-20 18:11:00,
2013-04-20 14:16:00,77.1,66.1,30.04,North,11,4.0,8.0,69,0.00,,,0.02,WeatherCatV1.15B25,2013-04-20 18:16:00,
2013-04-20 14:21:00,76.7,66.2,30.04,North,5,4.0,7.0,70,0.00,,,0.02,WeatherCatV1.15B25,2013-04-20 18:21:00,
2013-04-20 14:26:00,76.7,66.6,30.04,NNE,24,6.0,6.0,71,0.00,,,0.02,WeatherCatV1.15B25,2013-04-20 18:26:00,
2013-04-20 14:31:00,77.2,66.6,30.04,WNW,294,7.0,7.0,70,0.00,,,0.02,WeatherCatV1.15B25,2013-04-20 18:31:00,
2013-04-20 14:36:00,77.8,66.4,30.03,NNE,24,1.0,7.0,68,0.00,,,0.02,WeatherCatV1.15B25,2013-04-20 18:36:00,
2013-04-20 14:41:00,78.0,67.0,30.03,NNW,344,6.0,9.0,69,0.00,,,0.02,WeatherCatV1.15B25,2013-04-20 18:41:00,
2013-04-20 14:46:00,78.2,67.2,30.03,NW,315,1.0,7.0,69,0.00,,,0.02,WeatherCatV1.15B25,2013-04-20 18:46:00,
2013-04-20 14:51:00,78.5,67.0,30.03,ENE,71,2.0,4.0,68,0.00,,,0.02,WeatherCatV1.15B25,2013-04-20 18:51:00,
2013-04-20 14:56:00,78.7,67.2,30.02,NNW,333,10.0,10.0,68,0.00,,,0.02,WeatherCatV1.15B25,2013-04-20 18:56:00,
2013-04-20 15:01:00,78.7,67.2,30.02,North,5,2.0,10.0,68,0.00,,,0.02,WeatherCatV1.15B25,2013-04-20 19:01:00,
2013-04-20 15:06:00,79.1,68.0,30.02,NNW,342,4.0,7.0,69,0.00,,,0.02,WeatherCatV1.15B25,2013-04-20 19:06:00,
2013-04-20 15:11:00,79.3,67.4,30.02,North,5,2.0,4.0,67,0.00,,,0.02,WeatherCatV1.15B25,2013-04-20 19:11:00,
2013-04-20 15:16:00,79.2,67.3,30.01,ENE,67,1.0,2.0,67,0.00,,,0.02,WeatherCatV1.15B25,2013-04-20 19:16:00,
2013-04-20 15:21:00,79.0,67.5,30.01,North,5,0.0,2.0,68,0.00,,,0.02,WeatherCatV1.15B25,2013-04-20 19:21:00,
2013-04-20 15:26:00,79.0,67.5,30.01,North,5,2.0,8.0,68,0.00,,,0.02,WeatherCatV1.15B25,2013-04-20 19:26:00,
2013-04-20 15:31:00,78.9,67.4,30.01,North,5,1.0,5.0,68,0.00,,,0.02,WeatherCatV1.15B25,2013-04-20 19:31:00,
2013-04-20 15:36:00,78.5,66.6,30.01,NE,41,2.0,8.0,67,0.00,,,0.02,WeatherCatV1.15B25,2013-04-20 19:36:00,
2013-04-20 15:41:00,78.0,66.6,30.01,West,279,3.0,6.0,68,0.00,,,0.02,WeatherCatV1.15B25,2013-04-20 19:41:00,
2013-04-20 15:46:00,77.8,66.8,30.02,NW,315,6.0,8.0,69,0.00,,,0.02,WeatherCatV1.15B25,2013-04-20 19:46:00,
2013-04-20 15:51:00,77.9,66.9,30.02,NNW,336,0.0,5.0,69,0.00,,,0.02,WeatherCatV1.15B25,2013-04-20 19:51:00,
2013-04-20 15:56:00,78.2,67.2,30.01,NW,321,4.0,6.0,69,0.00,,,0.02,WeatherCatV1.15B25,2013-04-20 19:56:00,
2013-04-20 16:01:00,78.4,66.9,30.01,NNW,333,4.0,5.0,68,0.00,,,0.02,WeatherCatV1.15B25,2013-04-20 20:01:00,
2013-04-20 16:06:00,78.5,66.6,30.01,NE,45,2.0,5.0,67,0.00,,,0.02,WeatherCatV1.15B25,2013-04-20 20:06:00,
2013-04-20 16:11:00,78.5,67.0,30.01,NW,324,6.0,8.0,68,0.00,,,0.02,WeatherCatV1.15B25,2013-04-20 20:11:00,
2013-04-20 16:16:00,78.0,66.6,30.00,NNW,348,2.0,6.0,68,0.00,,,0.02,WeatherCatV1.15B25,2013-04-20 20:16:00,
2013-04-20 16:21:00,77.6,67.0,30.01,NW,319,3.0,5.0,70,0.00,,,0.02,WeatherCatV1.15B25,2013-04-20 20:21:00,
2013-04-20 16:26:00,77.4,66.4,30.01,NW,321,1.0,4.0,69,0.00,,,0.02,WeatherCatV1.15B25,2013-04-20 20:26:00,
2013-04-20 16:31:00,77.2,66.6,30.01,North,355,1.0,5.0,70,0.00,,,0.02,WeatherCatV1.15B25,2013-04-20 20:31:00,
2013-04-20 16:36:00,77.1,66.5,30.01,NW,313,0.0,3.0,70,0.00,,,0.02,WeatherCatV1.15B25,2013-04-20 20:36:00,
2013-04-20 16:41:00,76.9,66.3,30.01,NNE,27,4.0,5.0,70,0.00,,,0.02,WeatherCatV1.15B25,2013-04-20 20:41:00,
2013-04-20 16:46:00,76.8,67.1,30.00,NNE,24,2.0,6.0,72,0.00,,,0.02,WeatherCatV1.15B25,2013-04-20 20:46:00,
2013-04-20 16:51:00,76.2,67.3,30.00,North,355,0.0,2.0,74,0.00,,,0.02,WeatherCatV1.15B25,2013-04-20 20:51:00,
2013-04-20 16:56:00,75.8,67.3,30.00,NNW,332,1.0,5.0,75,0.00,,,0.02,WeatherCatV1.15B25,2013-04-20 20:56:00,
2013-04-20 17:01:00,75.7,67.2,30.00,North,0,4.0,5.0,75,0.00,,,0.02,WeatherCatV1.15B25,2013-04-20 21:01:00,
2013-04-20 17:06:00,75.7,66.8,30.00,NNW,348,0.0,5.0,74,0.00,,,0.02,WeatherCatV1.15B25,2013-04-20 21:06:00,
2013-04-20 17:11:00,75.9,67.4,30.00,NNE,13,1.0,2.0,75,0.00,,,0.02,WeatherCatV1.15B25,2013-04-20 21:11:00,
2013-04-20 17:16:00,76.2,67.3,30.00,NE,46,2.0,5.0,74,0.00,,,0.02,WeatherCatV1.15B25,2013-04-20 21:16:00,
2013-04-20 17:21:00,76.2,66.9,30.00,NNW,329,4.0,7.0,73,0.00,,,0.02,WeatherCatV1.15B25,2013-04-20 21:21:00,
2013-04-20 17:26:00,76.4,67.1,30.00,NNW,348,2.0,4.0,73,0.00,,,0.02,WeatherCatV1.15B25,2013-04-20 21:26:00,
2013-04-20 17:31:00,76.6,66.9,30.00,NNE,30,2.0,10.0,72,0.00,,,0.02,WeatherCatV1.15B25,2013-04-20 21:31:00,
2013-04-20 17:36:00,76.7,66.6,30.00,NNW,333,1.0,10.0,71,0.00,,,0.02,WeatherCatV1.15B25,2013-04-20 21:36:00,
2013-04-20 17:41:00,76.9,66.8,30.00,East,92,2.0,5.0,71,0.00,,,0.02,WeatherCatV1.15B25,2013-04-20 21:41:00,
2013-04-20 17:46:00,77.0,67.3,30.00,North,9,5.0,8.0,72,0.00,,,0.02,WeatherCatV1.15B25,2013-04-20 21:46:00,
2013-04-20 17:51:00,77.1,67.4,30.00,NW,325,0.0,4.0,72,0.00,,,0.02,WeatherCatV1.15B25,2013-04-20 21:51:00,
2013-04-20 17:56:00,77.1,67.0,30.00,North,5,1.0,5.0,71,0.00,,,0.02,WeatherCatV1.15B25,2013-04-20 21:56:00,
2013-04-20 18:01:00,77.1,66.5,30.00,East,90,4.0,5.0,70,0.00,,,0.02,WeatherCatV1.15B25,2013-04-20 22:01:00,
2013-04-20 18:06:00,77.1,66.5,30.00,North,355,1.0,2.0,70,0.00,,,0.02,WeatherCatV1.15B25,2013-04-20 22:06:00,
2013-04-20 18:11:00,76.9,66.3,30.00,ESE,103,0.0,1.0,70,0.00,,,0.02,WeatherCatV1.15B25,2013-04-20 22:11:00,
2013-04-20 18:16:00,76.9,66.8,30.00,NNW,344,2.0,5.0,71,0.00,,,0.02,WeatherCatV1.15B25,2013-04-20 22:16:00,
2013-04-20 18:21:00,76.8,66.7,30.01,NNW,340,3.0,6.0,71,0.00,,,0.02,WeatherCatV1.15B25,2013-04-20 22:21:00,
2013-04-20 18:26:00,76.7,66.6,30.01,NNW,348,1.0,3.0,71,0.00,,,0.02,WeatherCatV1.15B25,2013-04-20 22:26:00,
2013-04-20 18:31:00,76.6,66.5,30.01,NNW,347,1.0,4.0,71,0.00,,,0.02,WeatherCatV1.15B25,2013-04-20 22:31:00,
2013-04-20 18:36:00,76.5,66.8,30.01,NNW,335,1.0,5.0,72,0.00,,,0.02,WeatherCatV1.15B25,2013-04-20 22:36:00,
2013-04-20 18:41:00,76.3,66.6,30.01,NNW,348,2.0,5.0,72,0.00,,,0.02,WeatherCatV1.15B25,2013-04-20 22:41:00,
2013-04-20 18:46:00,76.1,66.4,30.01,North,349,0.0,5.0,72,0.00,,,0.02,WeatherCatV1.15B25,2013-04-20 22:46:00,
2013-04-20 18:51:00,76.0,66.3,30.01,North,355,0.0,5.0,72,0.00,,,0.02,WeatherCatV1.15B25,2013-04-20 22:51:00,
2013-04-20 18:56:00,75.8,66.5,30.01,NNW,337,1.0,2.0,73,0.00,,,0.02,WeatherCatV1.15B25,2013-04-20 22:56:00,
2013-04-20 19:01:00,75.7,66.4,30.02,NNW,329,4.0,8.0,73,0.00,,,0.02,WeatherCatV1.15B25,2013-04-20 23:01:00,
2013-04-20 19:06:00,75.5,66.6,30.02,NW,326,5.0,8.0,74,0.00,,,0.02,WeatherCatV1.15B25,2013-04-20 23:06:00,
2013-04-20 19:11:00,75.4,66.5,30.02,North,11,1.0,5.0,74,0.00,,,0.02,WeatherCatV1.15B25,2013-04-20 23:11:00,
2013-04-20 19:16:00,75.4,66.5,30.02,NNE,13,3.0,5.0,74,0.00,,,0.02,WeatherCatV1.15B25,2013-04-20 23:16:00,
2013-04-20 19:21:00,75.2,66.3,30.02,North,355,4.0,5.0,74,0.00,,,0.02,WeatherCatV1.15B25,2013-04-20 23:21:00,
2013-04-20 19:26:00,75.2,66.3,30.02,North,355,0.0,2.0,74,0.00,,,0.02,WeatherCatV1.15B25,2013-04-20 23:26:00,
2013-04-20 19:31:00,75.1,66.2,30.02,North,350,2.0,6.0,74,0.00,,,0.02,WeatherCatV1.15B25,2013-04-20 23:31:00,
2013-04-20 19:36:00,75.1,66.2,30.02,North,5,0.0,4.0,74,0.00,,,0.02,WeatherCatV1.15B25,2013-04-20 23:36:00,
2013-04-20 19:41:00,75.0,66.1,30.02,North,355,3.0,4.0,74,0.00,,,0.02,WeatherCatV1.15B25,2013-04-20 23:41:00,
2013-04-20 19:46:00,74.9,66.0,30.03,NNW,340,3.0,5.0,74,0.00,,,0.02,WeatherCatV1.15B25,2013-04-20 23:46:00,
2013-04-20 19:51:00,74.6,66.5,30.03,NNW,334,2.0,10.0,76,0.00,,,0.02,WeatherCatV1.15B25,2013-04-20 23:51:00,
2013-04-20 19:56:00,74.2,66.5,30.02,NNW,331,2.0,5.0,77,0.00,,,0.02,WeatherCatV1.15B25,2013-04-20 23:56:00,
2013-04-20 20:01:00,73.8,66.1,30.03,North,355,3.0,6.0,77,0.00,,,0.02,WeatherCatV1.15B25,2013-04-21 00:01:00,
2013-04-20 20:06:00,73.5,66.2,30.03,NNW,337,7.0,11.0,78,0.00,,,0.02,WeatherCatV1.15B25,2013-04-21 00:06:00,
2013-04-20 20:11:00,73.3,66.0,30.04,NW,311,1.0,5.0,78,0.00,,,0.02,WeatherCatV1.15B25,2013-04-21 00:11:00,
2013-04-20 20:16:00,73.1,66.2,30.04,NNW,327,2.0,4.0,79,0.00,,,0.02,WeatherCatV1.15B25,2013-04-21 00:16:00,
2013-04-20 20:21:00,73.0,66.1,30.04,NNE,13,2.0,5.0,79,0.00,,,0.02,WeatherCatV1.15B25,2013-04-21 00:21:00,
2013-04-20 20:26:00,72.8,65.9,30.05,North,0,4.0,9.0,79,0.00,,,0.02,WeatherCatV1.15B25,2013-04-21 00:26:00,
2013-04-20 20:31:00,72.6,65.7,30.04,NNE,28,0.0,2.0,79,0.00,,,0.02,WeatherCatV1.15B25,2013-04-21 00:31:00,
2013-04-20 20:36:00,72.4,65.5,30.05,NNW,327,4.0,7.0,79,0.00,,,0.02,WeatherCatV1.15B25,2013-04-21 00:36:00,
2013-04-20 20:41:00,72.3,65.4,30.05,NW,324,5.0,8.0,79,0.00,,,0.02,WeatherCatV1.15B25,2013-04-21 00:41:00,
2013-04-20 20:46:00,72.1,65.6,30.05,North,9,7.0,9.0,80,0.00,,,0.02,WeatherCatV1.15B25,2013-04-21 00:46:00,
2013-04-20 20:51:00,72.0,65.5,30.06,North,355,4.0,6.0,80,0.00,,,0.02,WeatherCatV1.15B25,2013-04-21 00:51:00,
2013-04-20 20:56:00,71.9,65.4,30.06,NW,317,6.0,7.0,80,0.00,,,0.02,WeatherCatV1.15B25,2013-04-21 00:56:00,
2013-04-20 21:01:00,71.9,65.4,30.06,NNW,337,1.0,1.0,80,0.00,,,0.02,WeatherCatV1.15B25,2013-04-21 01:01:00,
2013-04-20 21:06:00,71.7,65.2,30.06,North,5,4.0,6.0,80,0.00,,,0.02,WeatherCatV1.15B25,2013-04-21 01:06:00,
2013-04-20 21:11:00,71.6,65.1,30.07,North,11,5.0,6.0,80,0.00,,,0.02,WeatherCatV1.15B25,2013-04-21 01:11:00,
2013-04-20 21:16:00,71.4,65.3,30.07,North,349,1.0,7.0,81,0.00,,,0.02,WeatherCatV1.15B25,2013-04-21 01:16:00,
2013-04-20 21:21:00,71.3,65.2,30.07,NNW,344,1.0,6.0,81,0.00,,,0.02,WeatherCatV1.15B25,2013-04-21 01:21:00,
2013-04-20 21:26:00,71.2,65.1,30.07,North,355,2.0,5.0,81,0.00,,,0.02,WeatherCatV1.15B25,2013-04-21 01:26:00,
2013-04-20 21:31:00,71.2,65.1,30.08,NNW,344,0.0,3.0,81,0.00,,,0.02,WeatherCatV1.15B25,2013-04-21 01:31:00,
2013-04-20 21:36:00,71.1,65.0,30.08,North,355,4.0,4.0,81,0.00,,,0.02,WeatherCatV1.15B25,2013-04-21 01:36:00,
2013-04-20 21:41:00,71.0,64.9,30.08,NNE,28,1.0,7.0,81,0.00,,,0.02,WeatherCatV1.15B25,2013-04-21 01:41:00,
2013-04-20 21:46:00,70.8,64.7,30.08,NNE,31,2.0,5.0,81,0.00,,,0.02,WeatherCatV1.15B25,2013-04-21 01:46:00,
2013-04-20 21:51:00,70.6,64.5,30.08,NE,49,1.0,5.0,81,0.00,,,0.02,WeatherCatV1.15B25,2013-04-21 01:51:00,
2013-04-20 21:56:00,70.6,64.5,30.08,ENE,76,2.0,5.0,81,0.00,,,0.02,WeatherCatV1.15B25,2013-04-21 01:56:00,
2013-04-20 22:01:00,70.4,64.6,30.08,East,91,0.0,5.0,82,0.00,,,0.02,WeatherCatV1.15B25,2013-04-21 02:01:00,
2013-04-20 22:06:00,70.3,64.5,30.08,East,92,1.0,7.0,82,0.00,,,0.02,WeatherCatV1.15B25,2013-04-21 02:06:00,
2013-04-20 22:11:00,70.2,64.4,30.09,ENE,74,0.0,3.0,82,0.00,,,0.02,WeatherCatV1.15B25,2013-04-21 02:11:00,
2013-04-20 22:16:00,70.1,64.0,30.09,ENE,71,0.0,4.0,81,0.00,,,0.02,WeatherCatV1.15B25,2013-04-21 02:16:00,
2013-04-20 22:21:00,70.1,64.3,30.10,ESE,108,1.0,2.0,82,0.00,,,0.02,WeatherCatV1.15B25,2013-04-21 02:21:00,
2013-04-20 22:26:00,70.1,64.3,30.10,ENE,70,1.0,5.0,82,0.00,,,0.02,WeatherCatV1.15B25,2013-04-21 02:26:00,
2013-04-20 22:31:00,70.1,64.0,30.10,East,90,0.0,4.0,81,0.00,,,0.02,WeatherCatV1.15B25,2013-04-21 02:31:00,
2013-04-20 22:36:00,70.1,64.0,30.10,North,355,0.0,3.0,81,0.00,,,0.02,WeatherCatV1.15B25,2013-04-21 02:36:00,
2013-04-20 22:41:00,70.1,64.0,30.11,ESE,118,0.0,5.0,81,0.00,,,0.02,WeatherCatV1.15B25,2013-04-21 02:41:00,
2013-04-20 22:46:00,70.0,63.9,30.11,East,82,0.0,2.0,81,0.00,,,0.02,WeatherCatV1.15B25,2013-04-21 02:46:00,
2013-04-20 22:51:00,70.0,64.2,30.11,North,355,2.0,4.0,82,0.00,,,0.02,WeatherCatV1.15B25,2013-04-21 02:51:00,
2013-04-20 22:56:00,69.9,64.1,30.11,ENE,69,1.0,5.0,82,0.00,,,0.02,WeatherCatV1.15B25,2013-04-21 02:56:00,
2013-04-20 23:01:00,69.7,64.3,30.11,NNW,346,1.0,5.0,83,0.00,,,0.02,WeatherCatV1.15B25,2013-04-21 03:01:00,
2013-04-20 23:06:00,69.6,64.2,30.12,North,355,0.0,4.0,83,0.00,,,0.02,WeatherCatV1.15B25,2013-04-21 03:06:00,
2013-04-20 23:11:00,69.6,64.2,30.12,NNE,13,4.0,5.0,83,0.00,,,0.02,WeatherCatV1.15B25,2013-04-21 03:11:00,
2013-04-20 23:16:00,69.5,64.4,30.12,NNE,13,0.0,2.0,84,0.00,,,0.02,WeatherCatV1.15B25,2013-04-21 03:16:00,
2013-04-20 23:21:00,69.3,64.2,30.12,East,84,6.0,6.0,84,0.00,,,0.02,WeatherCatV1.15B25,2013-04-21 03:21:00,
2013-04-20 23:26:00,68.9,63.9,30.11,NE,41,2.0,5.0,84,0.00,,,0.02,WeatherCatV1.15B25,2013-04-21 03:26:00,
2013-04-20 23:31:00,68.4,64.0,30.12,NNW,331,1.0,6.0,86,0.00,,,0.02,WeatherCatV1.15B25,2013-04-21 03:31:00,
2013-04-20 23:36:00,68.0,63.6,30.12,ESE,104,1.0,5.0,86,0.00,,,0.02,WeatherCatV1.15B25,2013-04-21 03:36:00,
2013-04-20 23:41:00,67.8,63.8,30.12,NNW,342,1.0,4.0,87,0.00,,,0.02,WeatherCatV1.15B25,2013-04-21 03:41:00,
2013-04-20 23:46:00,67.6,63.6,30.12,NNW,336,1.0,5.0,87,0.00,,,0.02,WeatherCatV1.15B25,2013-04-21 03:46:00,
2013-04-20 23:51:00,67.5,63.5,30.12,East,83,1.0,7.0,87,0.00,,,0.02,WeatherCatV1.15B25,2013-04-21 03:51:00,
2013-04-20 23:56:00,67.3,63.6,30.11,East,88,0.0,3.0,88,0.00,,,0.02,WeatherCatV1.15B25,2013-04-21 03:56:00,